Location: Ottawa
(45.4167°N, 75.7000°W)
Time: 09:16:14
(UTC-05:00)

Vanguard 2 Rocket - Visible Passes

Search period start: 15 December 2017 00:00
Search period end: 25 December 2017 00:00
Orbit: 556 x 3326 km, 32.9° (Epoch: 14 December)

Date Brightness Start Highest point End Pass type
(mag) Time Alt. Az. Time Alt. Az. Time Alt. Az.
15 Dec 9.6 17:47:28 10° SSW 17:56:28 30° SE 18:06:34 16° E visible
15 Dec 9.4 19:58:12 10° WSW 20:10:42 51° SSE 20:12:23 50° SSE visible
15 Dec 10.1 22:11:36 10° W 22:18:10 32° WSW 22:18:10 32° WSW visible
16 Dec 9.8 16:50:10 10° S 16:57:03 21° SE 17:06:38 10° E visible
16 Dec 9.3 18:59:20 10° SW 19:10:07 45° SSE 19:16:08 34° ESE visible
16 Dec 9.6 21:11:46 10° WSW 21:21:56 47° SW 21:21:56 47° SW visible
16 Dec 10.7 23:26:27 10° W 23:27:44 13° W 23:27:44 13° W visible
17 Dec 9.4 18:00:55 10° SW 18:10:03 37° SSE 18:19:54 19° ESE visible
17 Dec 9.3 20:12:22 10° WSW 20:24:40 52° S 20:25:42 51° SSE visible
17 Dec 10.2 22:26:03 10° W 22:31:30 27° WSW 22:31:30 27° WSW visible
18 Dec 9.5 17:03:02 10° SSW 17:10:28 27° SE 17:21:38 10° E visible
18 Dec 9.2 19:13:21 10° WSW 19:24:01 48° SSE 19:29:29 38° SE visible
18 Dec 9.7 21:26:09 10° WSW 21:35:17 42° SW 21:35:17 42° SW visible
19 Dec 9.2 18:14:44 10° SW 18:23:49 42° SSE 18:33:16 22° ESE visible
19 Dec 9.3 20:26:40 10° WSW 20:38:43 50° S 20:39:04 50° S visible
19 Dec 10.4 22:40:41 10° W 22:44:53 22° WSW 22:44:53 22° WSW visible
20 Dec 9.3 17:16:32 10° SSW 17:24:07 33° SSE 17:36:10 10° E visible
20 Dec 9.2 19:27:35 10° WSW 19:38:03 49° S 19:42:53 40° SE visible
20 Dec 9.8 21:40:40 10° W 21:48:42 36° SW 21:48:42 36° SW visible
21 Dec 9.1 18:28:49 10° SW 18:37:48 45° SSE 18:46:44 24° ESE visible
21 Dec 9.4 20:41:06 10° WSW 20:52:33 46° SSW 20:52:33 46° SSW visible
21 Dec 10.5 22:55:38 10° W 22:58:21 17° WSW 22:58:21 17° WSW visible
22 Dec 9.1 17:30:24 10° SW 17:37:59 38° SSE 17:50:27 10° E visible
22 Dec 9.2 19:41:56 10° WSW 19:52:11 47° S 19:56:26 40° SSE visible
22 Dec 10.0 21:55:24 10° W 22:02:15 30° SW 22:02:15 30° SW visible
23 Dec 9.1 18:43:05 10° WSW 18:51:54 45° S 19:00:23 24° ESE visible
23 Dec 9.6 20:55:42 10° W 21:06:12 40° SSW 21:06:12 40° SSW visible
23 Dec 10.7 23:11:13 10° WSW 23:12:01 12° WSW 23:12:01 12° WSW visible
24 Dec 9.0 17:44:32 10° SW 17:52:01 41° SSE 18:04:23 10° ESE visible
24 Dec 9.3 19:56:26 10° WSW 20:06:20 42° S 20:10:12 37° SSE visible
24 Dec 10.2 22:10:30 10° WSW 22:16:02 23° SW 22:16:02 23° SW visible
